This is the latest recevied weather packets stored in our database for station/object KD5UMO-1. If no packets are shown the sender has not sent any weather packets the latest 10 day(s).
| Time | Temp. | Humidity | Pressure | Rain* | Wind** | Luminosity | Snow |
|---|---|---|---|---|---|---|---|
| 1777906023 | 21.11° C | 61% | 1013.5 hPa | 0 mm | - | 477 W/m² | - |
| 1777905719 | 21.11° C | 62% | 1013.4 hPa | 0 mm | - | 402 W/m² | - |
| 1777905416 | 20.56° C | 63% | 1013.4 hPa | 0 mm | - | 302 W/m² | - |
| 1777905114 | 21.11° C | 62% | 1013.5 hPa | 0 mm | - | 367 W/m² | - |
| 1777904811 | 20.56° C | 64% | 1013.3 hPa | 0 mm | - | 418 W/m² | - |
| 1777904508 | 20° C | 64% | 1013.3 hPa | 0 mm | - | 361 W/m² | - |
| 1777904204 | 20° C | 64% | 1013.6 hPa | 0 mm | - | 409 W/m² | - |
| 1777903902 | 20° C | 65% | 1013.6 hPa | 0 mm | - | 349 W/m² | - |
| 1777903599 | 20° C | 65% | 1013.6 hPa | 0 mm | - | 318 W/m² | - |
| 1777903294 | 20° C | 66% | 1013.5 hPa | 0 mm | - | 351 W/m² | - |
| 1777902991 | 19.44° C | 66% | 1013.3 hPa | 0 mm | - | 333 W/m² | - |
| 1777902688 | 20° C | 65% | 1013.6 hPa | 0 mm | - | 332 W/m² | - |
| 1777902385 | 20° C | 67% | 1013.4 hPa | 0 mm | - | 313 W/m² | - |
| 1777902081 | 20° C | 65% | 1013.5 hPa | 0 mm | - | 288 W/m² | - |
| 1777901780 | 19.44° C | 67% | 1013.6 hPa | 0 mm | - | 266 W/m² | - |
| 1777901477 | 19.44° C | 68% | 1013.7 hPa | 0 mm | - | 267 W/m² | - |
| 1777901175 | 18.89° C | 69% | 1013.6 hPa | 0 mm | - | 224 W/m² | - |
| 1777900872 | 18.89° C | 68% | 1013.8 hPa | 0 mm | - | 169 W/m² | - |
| 1777900569 | 18.89° C | 69% | 1013.8 hPa | 0 mm | - | 193 W/m² | - |
| 1777900266 | 18.89° C | 69% | 1013.7 hPa | 0 mm | - | 146 W/m² | - |
| 1777899962 | 18.89° C | 69% | 1013.6 hPa | 0 mm | - | 143 W/m² | - |
| 1777899659 | 18.33° C | 69% | 1013.7 hPa | 0 mm | - | 157 W/m² | - |
| 1777899357 | 18.33° C | 70% | 1013.5 hPa | 0 mm | - | 136 W/m² | - |
| 1777899055 | 18.33° C | 69% | 1013.4 hPa | 0 mm | - | 131 W/m² | - |
| 1777898751 | 18.33° C | 70% | 1013.6 hPa | 0 mm | - | 109 W/m² | - |
* Rain latest hour (hover to see other rain measurements)
** Current wind speed in m/s (hover to see current wind gust speed)